{"data":{"norad_id":69510,"intl_designator":"2026-133C","name":"STARLINK-36536","alt_names":[],"object_type":"PAYLOAD","status":"ACTIVE","operator":null,"country":"US","launch_date":"2026-06-12","launch_site_code":"AFETR","launch_vehicle":null,"mission":null,"orbit_class":"UNKNOWN","rcs_meters":null,"size_class":null,"mass_kg":null,"dimensions":null,"purposes":["comms"],"wikipedia_slug":null,"has_3d_model":false,"image_url":null,"decayed_at":null,"tle_current":{"epoch":"2026-09-20T04:35:57.783264Z","epoch_age_seconds":52139,"freshness":"FRESH","line1":"1 69510U 26133C   26263.19164101  .00017122  00000+0  51669-3 0  9990","line2":"2 69510  53.1574 231.3783 0001155  85.1427 274.9708 15.34401930 15456","mean_motion":15.3440193,"eccentricity":0.0001155,"inclination_deg":53.1574,"raan_deg":231.3783,"arg_perigee_deg":85.1427,"mean_anomaly_deg":274.9708,"bstar":0.00051669,"rev_number":1545,"period_min":93.847640037835,"perigee_km":461.90738746119,"apogee_km":463.48762023158,"semimajor_km":6840.8345038464,"source":"CELESTRAK","updated_at":"2026-09-20T09:00:44.210752Z"}}}